TimeBST,TemperatureF,Dew PointF,Humidity,Sea Level PressureIn,VisibilityMPH,Wind Direction,Wind SpeedMPH,Gust SpeedMPH,PrecipitationIn,Events,Conditions,WindDirDegrees,DateUTC
12:20 AM,57.2,46.4,67,29.98,-9999.0,East,4.6,-,N/A,,Clear,80,2013-06-16 23:20:00
12:50 AM,58,46,55,29.98,22,East,4.6,,,,Overcast,90,2013-06-16 23:50:00
12:50 AM,55.4,48.2,77,29.98,-9999.0,East,5.8,-,N/A,,Clear,90,2013-06-16 23:50:00
1:20 AM,55.4,48.2,77,29.98,-9999.0,East,6.9,-,N/A,,Clear,90,2013-06-17 00:20:00
1:50 AM,53.6,48.2,82,29.98,6.2,East,5.8,-,N/A,,Unknown,80,2013-06-17 00:50:00
2:20 AM,55.4,48.2,77,29.95,6.2,East,5.8,-,N/A,,Unknown,80,2013-06-17 01:20:00
2:50 AM,55.4,48.2,77,29.95,6.2,ENE,5.8,-,N/A,,Unknown,60,2013-06-17 01:50:00
3:20 AM,57.2,48.2,72,29.95,-9999.0,East,6.9,-,N/A,,Clear,80,2013-06-17 02:20:00
3:50 AM,57,49,66,29.95,16,East,6.9,,,,Mostly Cloudy,80,2013-06-17 02:50:00
3:50 AM,57.2,50.0,77,29.95,-9999.0,East,8.1,-,N/A,,Clear,100,2013-06-17 02:50:00
4:20 AM,57.2,50.0,77,29.95,6.2,ESE,9.2,-,N/A,Rain,Light Rain,110,2013-06-17 03:20:00
4:50 AM,55.4,50.0,82,29.95,-9999.0,East,8.1,-,N/A,,Clear,90,2013-06-17 03:50:00
5:20 AM,55.4,48.2,77,29.95,6.2,East,8.1,-,N/A,Rain,Light Rain,80,2013-06-17 04:20:00
5:50 AM,55.4,48.2,77,29.95,6.2,East,8.1,-,N/A,Rain,Light Rain,100,2013-06-17 04:50:00
6:20 AM,55.4,48.2,77,29.95,6.2,East,9.2,-,N/A,Rain,Light Rain,80,2013-06-17 05:20:00
6:50 AM,56,49,69,29.96,17,East,5.8,,,Rain,Rain,100,2013-06-17 05:50:00
6:50 AM,55.4,50.0,82,29.95,-9999.0,East,6.9,-,N/A,,Clear,90,2013-06-17 05:50:00
7:20 AM,57.2,50.0,77,29.95,-9999.0,East,6.9,-,N/A,,Clear,80,2013-06-17 06:20:00
7:50 AM,57.2,50.0,77,29.95,-9999.0,ENE,9.2,-,N/A,,Clear,70,2013-06-17 06:50:00
8:20 AM,57.2,50.0,77,29.95,-9999.0,ENE,9.2,-,N/A,,Clear,70,2013-06-17 07:20:00
8:50 AM,59.0,50.0,72,29.95,-9999.0,ENE,9.2,-,N/A,,Clear,60,2013-06-17 07:50:00
9:20 AM,60.8,51.8,72,29.92,-9999.0,ENE,10.4,-,N/A,,Clear,60,2013-06-17 08:20:00
9:50 AM,61,49,56,29.94,19,ENE,9.2,,,,Mostly Cloudy,70,2013-06-17 08:50:00
9:50 AM,60.8,50.0,68,29.92,-9999.0,ENE,10.4,-,N/A,,Clear,70,2013-06-17 08:50:00
10:20 AM,62.6,50.0,63,29.92,-9999.0,ENE,10.4,-,N/A,,Clear,70,2013-06-17 09:20:00
10:50 AM,64.4,50.0,59,29.95,-9999.0,ENE,10.4,-,N/A,,Clear,70,2013-06-17 09:50:00
11:20 AM,64.4,50.0,59,29.95,-9999.0,ENE,10.4,-,N/A,,Clear,70,2013-06-17 10:20:00
11:50 AM,64.4,50.0,59,29.95,-9999.0,ENE,8.1,-,N/A,,Clear,70,2013-06-17 10:50:00
12:20 PM,66.2,50.0,56,29.92,-9999.0,ENE,12.7,-,N/A,,Clear,70,2013-06-17 11:20:00
12:50 PM,67,49,42,29.93,19,NE,10.4,,,,Scattered Clouds,50,2013-06-17 11:50:00
12:50 PM,68.0,48.2,49,29.92,-9999.0,ENE,11.5,-,N/A,,Clear,70,2013-06-17 11:50:00
1:20 PM,68.0,50.0,52,29.92,-9999.0,ENE,13.8,-,N/A,,Clear,60,2013-06-17 12:20:00
1:50 PM,68.0,48.2,49,29.95,-9999.0,East,10.4,-,N/A,,Clear,80,2013-06-17 12:50:00
2:20 PM,69.8,48.2,46,29.95,-9999.0,East,12.7,-,N/A,,Clear,100,2013-06-17 13:20:00
2:50 PM,69.8,48.2,46,29.95,-9999.0,ENE,10.4,-,N/A,,Clear,70,2013-06-17 13:50:00
3:20 PM,69.8,48.2,46,29.92,-9999.0,ENE,12.7,-,N/A,,Clear,70,2013-06-17 14:20:00
3:50 PM,69,48,36,29.93,22,ENE,10.4,,,,Scattered Clouds,70,2013-06-17 14:50:00
3:50 PM,69.8,48.2,46,29.92,-9999.0,ENE,11.5,-,N/A,,Clear,70,2013-06-17 14:50:00
4:20 PM,69.8,48.2,46,29.92,-9999.0,ENE,12.7,-,N/A,,Clear,60,2013-06-17 15:20:00
4:50 PM,69.8,48.2,46,29.92,-9999.0,ENE,12.7,-,N/A,,Clear,60,2013-06-17 15:50:00
5:20 PM,69.8,46.4,43,29.92,-9999.0,ENE,12.7,-,N/A,,Clear,60,2013-06-17 16:20:00
5:50 PM,69.8,46.4,43,29.95,-9999.0,ENE,12.7,-,N/A,,Clear,70,2013-06-17 16:50:00
6:20 PM,69.8,46.4,43,29.95,-9999.0,ENE,12.7,-,N/A,,Clear,60,2013-06-17 17:20:00
6:50 PM,67,47,38,29.94,22,NE,11.5,,,,,50,2013-06-17 17:50:00
6:50 PM,68.0,48.2,49,29.92,-9999.0,ENE,10.4,-,N/A,,Clear,60,2013-06-17 17:50:00
7:20 PM,66.2,46.4,49,29.95,-9999.0,ENE,11.5,-,N/A,,Clear,60,2013-06-17 18:20:00
7:50 PM,66.2,46.4,49,29.95,-9999.0,ENE,8.1,-,N/A,,Clear,60,2013-06-17 18:50:00
8:20 PM,66.2,46.4,49,29.92,-9999.0,ENE,12.7,-,N/A,,Clear,60,2013-06-17 19:20:00
8:50 PM,64.4,46.4,52,29.92,-9999.0,ENE,10.4,-,N/A,,Clear,60,2013-06-17 19:50:00
9:20 PM,64.4,46.4,52,29.92,-9999.0,ENE,11.5,-,N/A,,Clear,60,2013-06-17 20:20:00
9:50 PM,63,47,45,29.96,22,ENE,12.7,,,,Mostly Cloudy,70,2013-06-17 20:50:00
9:50 PM,62.6,48.2,59,29.95,-9999.0,East,12.7,-,N/A,,Clear,80,2013-06-17 20:50:00
10:20 PM,62.6,48.2,59,29.98,-9999.0,ENE,11.5,-,N/A,,Clear,70,2013-06-17 21:20:00
10:50 PM,60.8,48.2,63,29.95,-9999.0,ENE,10.4,-,N/A,,Clear,70,2013-06-17 21:50:00
11:20 PM,60.8,50.0,68,29.95,6.2,ENE,9.2,-,N/A,,Partly Cloudy,60,2013-06-17 22:20:00
11:50 PM,60.8,50.0,68,29.95,6.2,ENE,9.2,-,N/A,,Scattered Clouds,60,2013-06-17 22:50:00